STARLINK-36920

Last updated on Fri Mar 27 2026 00:02:06 GMT+0000 (Coordinated Universal Time)

1 67947U 26037R 26085.50002314 .00122114 00000+0 20607-2 0 9994 2 67947 43.0004 97.2051 0001611 271.1415 151.2312 15.50500796 5907
UTC large
Height (km)
Speed (km/s)
/
Latitude / Longitude
Inclination (degrees)
Orbital Period (minutes)
Azimuth
Elevation
Range (km)
Doppler Factor

Next 0 passes for location: London (51.5072 / 0.1276)

Sorry there are no passes over London.